Погода Рудня

Поиск расширенной информации на нашем сайте:

Полезная информация:

Новости сайта



02.01.2020
Опубликован Долгосрочный прогноз погоды по городам России и ближнего зарубежья на январь 2020 года.
Карты: Прогноз на январь и февраль 2020 года, Сравнение прогнозируемой аномалии приземной температуры воздуха на январь 2020 года по разным моделям.




Погода Рудня - сегодня

Время (UTC), дата Ветер
(°,м/с) 
Видим.   Явления Облачность Т
(°С)
Тd
(°С)
f(%) Тe
(°С)
Pmin
(гПа)
dP
(гПа)
Po
(мм)
O2
(г/м3)
Тmin Tmax R s Состояние
почвы
12 24.02.21 310 (СЗ) 10 км    9/9 600 м 
[Sc]
-18.5 -25.2 56 -23  1041.6  -0.3  769  334           
18 24.02.21 310 (СЗ) 10 км    10/0 верхняя 
[Cs]
-19.9 -24.1 69 -20  1040.5  -0.8  768  336           
21 24.02.21 тихо ()   10 км    10/0 верхняя 
[Cs]
-21.2 -24.6 74 -21  1039.6  -0.9  768  337           
00 25.02.21 тихо ()   10 км    6/0 верхняя 
[Ci fib]
-22.3 -25.4 76 -22  1038.4  -1.2  767  338           
03 25.02.21 150 (ЮВ) 10 км    10/10 600 м 
[Sc]
-18.8 -23.2 68 -21  1036.2  -2  765  333  -22.6      равномерный
сухой снег
100% 
06 25.02.21 180 (Ю) 10 км  слаб. снег  10/8 600 м средняя 
[Sc|As trans]
-15.2 -19.1 72 -17  1033.7  -2.2  763  327           
09 25.02.21 200 (Ю) 4000 м  слаб. снег  10/8 600 м средняя 
[Sc|As trans]
-11.7 -14.5 80 -16  1029.6  -3.8  761  321           
12 25.02.21 220 (ЮЗ) 3{10}  4000 м  слаб. снег  10/8 600 м средняя 
[Sc|As trans]
-9.9 -12.4 82 -13  1025  -4.5  757  318           
15 25.02.21 230 (ЮЗ) 1000 м  снег  10/10 600 м 
[Frnb]
-9.8 -11.7 86 -12  1021.6  -3.3  755  317    -9.8     
18 25.02.21 250 (З) 10 км  в посл. час снег  10/10 600 м 
[Sc]
-7.4 -8.8 90 -9  1019.3  -2.2  753  313           
21 25.02.21 280 (З) 10 км  слаб. снег  10/8 600 м средняя 
[Sc|As trans]
-4.8 -6 91 -6  1017.4  -1.6  752  309           
00 26.02.21 280 (З) 10 км  слаб. снег  10/8 600 м средняя 
[Sc|As trans]
-2.8 -3.9 92 -4  1016.6  -0.7  751  306           
03 26.02.21 290 (З) 4000 м  дымка{снег}  10/10 600 м 
[St]
-1.1 -2 94 -1  1016.5  751  304  -9.8      14  равномерный
сухой снег
100% 
06 26.02.21 270 (З) 1000 м  дымка{снег}  10/10 600 м 
[St]
+0.5 -0.4 94 1016.4  -0.1  751  302           
09 26.02.21 240 (ЮЗ) 10 км    10/10 600 м 
[Sc]
+2.2 +0.3 87 +2  1015  -1  750  300           
12 26.02.21 260 (З) 4000 м  дымка  10/10 600 м 
[Sc]
+2.2 +0.9 91 +2  1013.3  -1.7  749  299           
15 26.02.21 260 (З) 1000 м  дымка{туман}  10/10 600 м 
[Sc]
+2.2 +1.3 94 +1  1011.2  -2  748  299    +2.4       
18 26.02.21 260 (З) 4-10{12}  4000 м  дымка{туман}  8/8 600 м 
[Sc]
+3.5 +2.1 91 +2  1008.5  -2.6  746  296           
21 26.02.21 270 (З) 3{10}  4000 м  дымка  10/8 600 м средняя 
[Sc|As op]
+3.3 +2 91 +2  1007.6  -1  745  296           
00 27.02.21 270 (З) 4000 м  дымка  9/8 600 м средняя 
[Sc|As op]
+1.9 +0.8 92 +1  1006.9  -0.7  744  298           
03 27.02.21 280 (З) 4000 м  дымка  8/0 средняя 
[Ac trans]
+0.9 -0.1 93 1005.7  -1.2  743  299  +0.8      равномерный
мокрый или
старый снег
100% 
06 27.02.21 280 (З) 4000 м  дымка  9/0 средняя 
[Ac As]
+2 +0.5 90 +1  1005.7  743  297  +0.8         
09 27.02.21 270 (З) 10 км    10/4 600 м средняя 
[Sc|Ac As]
+3.4 +0.3 80 +3  1005.5  0.1  743  296           
12 27.02.21 280 (З) 10 км    10/8 600 м средняя 
[Sc|Ac As]
+2.6 -0.2 82 +2  1005.3  -0.2  743  297           
15 27.02.21 280 (З) 10 км    10/10 600 м 
[Sc]
+1.7 -1.4 80 1005.1  -0.3  743  298    +3.5       
Время (UTC), дата Ветер
(°,м/с) 
Видим.   Явления Облачность Т
(°С)
Тd
(°С)
f(%) Тe
(°С)
Pmin
(гПа)
dP
(гПа)
Po
(мм)
O2
(г/м3)
Тmin Tmax R s Состояние
почвы

Для получения пояснительной информации подведите курсор к названию столбца.

ПОГОДА Рудня - архив

Всё, что Вы хотите узнать о погоде Рудня - удобно и подробно!

Выберите нужную дату (начиная с 1 января 2019* года) и нажмите кнопку "Найти".
Будут отображены архивные сводки погоды по пункту Рудня, начиная с указанной даты.


Отображать данные в формате CSV (для использования в таблицах Excel)


Внимание! Наш архив погоды предназначен исключительно для личного некоммерческого использования в познавательных целях. Если Вам необходимы официальные справки о состоянии погоды (для производственных, юридических, коммерческих и т.п. целей), обращайтесь в органы Росгидромета.

*Примечание: данная дата относится к архиву по метеостанциям СССР (Россия, СНГ, Балтия).
Архив по метеостанциям Зарубежной Европы и Азии (кроме Китая) хранится 10 дней, по другим регионам земного шара (Китай, Африка, Америка, Австралия, Океания) - 1 день.

Рудня - район местоположения метеостанции


Название, широта, долгота, высота метеостанции:
Рудня 50.8°ш. 44.6°д. 114 м над ур. моря [Российская Федерация]

Дополнительная информация

В oтличие oт бoльшинства пoгoдных сайтoв мы публикуем пoдрoбную метеoинфoрмацию в детальнoм прoфессиoнальнoм фoрмате.

Характеристики температуры и влажнoсти вoздуха измеряются на высoте 2 м в тени вдали oт зданий и деревьев.
Скoрoсть ветра измеряется на высoте 10 м (на урoвне рoста челoвека скoрoсть ветра ниже в 1.5-2 раза). Если метеoстанция нахoдится в гoрoде или в лесу, тo скoрoсть ветра занижена на 2-4 м/с пo сравнению с oткрытым местoм. Скoрoсть ветра над акватoриями крупных рек и oзёр, а также на вершинах хoлмoв на 2-5 м/с выше, чем в oбычных услoвиях.
Атмoсфернoе давление в разных тoчках местнoсти мoжет значительнo oтличаться oт давления на метеoстанции, в зависимoсти oт услoвий рельефа (при пoдъёме на 10 м давление пoнижается примернo на 1 мм рт.ст.).